Location: Atbuku
(36.4936°N, 30.4362°E)
Time: 16:47:24
(UTC+00:00)

PSLV R/B - Pass Details

Date: 11 December 2025
Orbit: 562 x 587 km, 98.0° (Epoch: 16 January)

Event Time Altitude Azimuth Distance (km) Brightness Sun altitude
Rises 15:59:23 0° 143° (SE) 2,738 6.7 -14.9°
Reaches altitude 10° 16:01:41 10° 132° (SE) 1,848 5.7 -15.4°
Enters shadow 16:04:07 26° 100° (E) 1,127 4.4 -15.8°
Exits shadow 16:07:58 14° 16° (NNE) 1,604 5.4 -16.6°
Drops below altitude 10° 16:08:43 10° 10° (N) 1,868 5.8 -16.7°
Sets 16:11:03 0° 360° (N) 2,773 6.7 -17.2°
